Location: Praha
(50.0830°N, 14.4670°E)
Time: 05:02:17
(UTC+02:00)

ISS - Pass Details

Date: 25 March 2020
Orbit: 417 x 423 km, 51.6° (Epoch: 29 March)

Event Time Altitude Azimuth Distance (km) Brightness Sun altitude
Rises 19:01:57 0° 251° (WSW) 2,354 1.2 -6.9°
Reaches altitude 10° 19:04:03 10° 251° (WSW) 1,492 0.1 -7.2°
Maximum altitude 19:07:24 86° 162° (SSE) 423 -3.8 -7.8°
Drops below altitude 10° 19:10:46 10° 75° (ENE) 1,498 -1.5 -8.3°
Enters shadow 19:11:00 - 75° (ENE) 1,595 -1.4 -8.3°
